sat.trackr.live / text

‹ back to catalog

STARLINK-11295 [DTC]

NORAD 61536 · 2024-184E

PAYLOAD ACTIVE UNKNOWN

§ Identity

Operator
Country
US
Launch date
2024-10-15
Launch site
AFWTR
Launch vehicle
Mass (kg)
RCS (m²)

Purposes: comms

External: N2YO · Heavens-Above · Gunter

§ Orbital elements

Epoch: 2026-05-24T22:26:12.826752Z

Period
91.74 min
Inclination
53.1589°
Eccentricity
0.0001106
Mean motion
15.69707818 rev/d
Perigee alt
359.0 km
Apogee alt
360.5 km
Semi-major
6,737.9 km
B*
1.0587e-5
RAAN
220.3175°
Arg perigee
80.8919°
Mean anomaly
279.2224°
Rev number
9,239

§ Raw data

STARLINK-11295 [DTC]1 61536U 24184E   26144.93487068  .00000694  00000+0  10587-4 0  99952 61536  53.1589 220.3175 0001106  80.8919 279.2224 15.69707818 92390

JSON: /api/v1/satellites/61536 · /tle

For live sub-satellite position, see the globe view (requires WebGL).

§ Visibility from observer

Set your observer location to see the next 7 days of passes ≥ 10°. The values pass through the URL so the page stays shareable.

No JS? Fill the form by hand. The geolocation button needs JavaScript.